| time (UTC) | temp F | wind direction | speed knots | gust knots | rain 1hr in | rain 24hr in | rain mn in | humidity % | barometer mb |
| 20260504080701 | 51 | 78 | 0.0 | 1.7 | 0.00 | 0.00 | 0.00 | 78 | 1010.2 |
| 20260504080158 | 50 | 135 | 0.0 | 1.7 | 0.00 | 0.00 | 0.00 | 79 | 1009.9 |
| 20260504070126 | 50 | 103 | 0.0 | 1.7 | 0.00 | 0.00 | 0.00 | 79 | 1010.2 |
| 20260504050514 | 55 | 89 | 0.0 | 1.7 | 0.00 | 0.00 | 0.00 | 63 | 1011.3 |
| 20260504050012 | 56 | 198 | 1.7 | 4.3 | 0.00 | 0.00 | 0.00 | 62 | 1011.4 |
| 20260504045508 | 56 | 216 | 1.7 | 3.5 | 0.00 | 0.00 | 0.00 | 62 | 1011.2 |
| 20260504045003 | 56 | 192 | 1.7 | 6.1 | 0.00 | 0.00 | 0.00 | 61 | 1011.5 |
| 20260504044501 | 57 | 227 | 2.6 | 4.3 | 0.00 | 0.00 | 0.00 | 60 | 1011.3 |
| 20260504043958 | 57 | 221 | 0.0 | 4.3 | 0.00 | 0.00 | 0.00 | 60 | 1011.5 |
| 20260504043455 | 57 | 224 | 1.7 | 2.6 | 0.00 | 0.00 | 0.00 | 60 | 1011.6 |
| 20260504042952 | 57 | 244 | 1.7 | 5.2 | 0.00 | 0.00 | 0.00 | 59 | 1011.5 |
| 20260504042449 | 57 | 237 | 2.6 | 5.2 | 0.00 | 0.00 | 0.00 | 60 | 1011.7 |
| 20260504041945 | 57 | 228 | 1.7 | 4.3 | 0.00 | 0.00 | 0.00 | 59 | 1011.4 |
| 20260504041442 | 57 | 171 | 1.7 | 2.6 | 0.00 | 0.00 | 0.00 | 60 | 1011.8 |
| 20260504040937 | 57 | 227 | 0.9 | 2.6 | 0.00 | 0.00 | 0.00 | 59 | 1011.8 |
| 20260504040436 | 58 | 182 | 0.0 | 4.3 | 0.00 | 0.00 | 0.00 | 58 | 1011.8 |
| 20260504035931 | 58 | 208 | 1.7 | 6.1 | 0.00 | 0.00 | 0.00 | 57 | 1011.5 |
| 20260504035429 | 58 | 272 | 0.9 | 6.1 | 0.00 | 0.00 | 0.00 | 58 | 1011.7 |
| 20260504034925 | 58 | 248 | 4.3 | 6.1 | 0.00 | 0.00 | 0.00 | 58 | 1011.8 |
| 20260504034423 | 58 | 246 | 0.0 | 6.1 | 0.00 | 0.00 | 0.00 | 57 | 1011.9 |
| 20260504033920 | 58 | 242 | 4.3 | 5.2 | 0.00 | 0.00 | 0.00 | 57 | 1011.9 |
| 20260504033418 | 58 | 257 | 1.7 | 5.2 | 0.00 | 0.00 | 0.00 | 58 | 1011.9 |
| 20260504032915 | 58 | 178 | 1.7 | 3.5 | 0.00 | 0.00 | 0.00 | 58 | 1012.1 |
| 20260504032411 | 58 | 181 | 0.0 | 5.2 | 0.00 | 0.00 | 0.00 | 59 | 1012.2 |
| 20260504031908 | 58 | 285 | 1.7 | 8.7 | 0.00 | 0.00 | 0.00 | 58 | 1011.9 |
| 20260504031405 | 58 | 223 | 2.6 | 5.2 | 0.00 | 0.00 | 0.00 | 59 | 1012.0 |
| 20260504030902 | 58 | 262 | 2.6 | 4.3 | 0.00 | 0.00 | 0.00 | 59 | 1012.1 |
| 20260504030359 | 58 | 269 | 1.7 | 6.1 | 0.00 | 0.00 | 0.00 | 59 | 1012.2 |
| 20260504025855 | 58 | 222 | 4.3 | 5.2 | 0.00 | 0.00 | 0.00 | 59 | 1012.3 |
| 20260504025352 | 58 | 180 | 1.7 | 7.0 | 0.00 | 0.00 | 0.00 | 59 | 1012.3 |
| 20260504024849 | 58 | 219 | 6.1 | 7.0 | 0.00 | 0.00 | 0.00 | 58 | 1012.4 |
| 20260504024345 | 58 | 220 | 1.7 | 5.2 | 0.00 | 0.00 | 0.00 | 59 | 1012.1 |
| 20260504023842 | 58 | 205 | 0.9 | 3.5 | 0.00 | 0.00 | 0.00 | 58 | 1012.2 |
| 20260504023339 | 58 | 168 | 1.7 | 6.1 | 0.00 | 0.00 | 0.00 | 58 | 1012.1 |
| 20260504022834 | 58 | 242 | 2.6 | 4.3 | 0.00 | 0.00 | 0.00 | 58 | 1012.1 |
| 20260504022332 | 58 | 259 | 0.9 | 2.6 | 0.00 | 0.00 | 0.00 | 58 | 1012.1 |
| 20260504021828 | 58 | 225 | 1.7 | 2.6 | 0.00 | 0.00 | 0.00 | 58 | 1012.1 |
| 20260504021326 | 58 | 235 | 2.6 | 4.3 | 0.00 | 0.00 | 0.00 | 58 | 1012.0 |
| 20260504020822 | 58 | 215 | 2.6 | 5.2 | 0.00 | 0.00 | 0.00 | 57 | 1012.1 |
| 20260504020319 | 59 | 236 | 2.6 | 6.1 | 0.00 | 0.00 | 0.00 | 56 | 1012.1 |
| 20260504015815 | 59 | 248 | 0.0 | 3.5 | 0.00 | 0.00 | 0.00 | 56 | 1012.2 |
| 20260504015311 | 59 | 175 | 1.7 | 6.1 | 0.00 | 0.00 | 0.00 | 56 | 1012.0 |
| 20260504014808 | 59 | 238 | 3.5 | 7.0 | 0.00 | 0.00 | 0.00 | 55 | 1012.1 |
| 20260504014303 | 59 | 205 | 3.5 | 6.1 | 0.00 | 0.00 | 0.00 | 55 | 1012.1 |
| 20260504013802 | 59 | 192 | 2.6 | 4.3 | 0.00 | 0.00 | 0.00 | 55 | 1012.2 |
| 20260504013259 | 59 | 198 | 0.9 | 2.6 | 0.00 | 0.00 | 0.00 | 55 | 1012.1 |
| 20260504012755 | 59 | 245 | 2.6 | 3.5 | 0.00 | 0.00 | 0.00 | 56 | 1012.2 |
| 20260504012254 | 60 | 209 | 4.3 | 7.8 | 0.00 | 0.00 | 0.00 | 55 | 1012.1 |
| 20260504011750 | 59 | 207 | 1.7 | 3.5 | 0.00 | 0.00 | 0.00 | 55 | 1012.0 |
| 20260504011247 | 59 | 36 | 0.9 | 2.6 | 0.00 | 0.00 | 0.00 | 56 | 1012.1 |
| 20260504010743 | 59 | 195 | 2.6 | 2.6 | 0.00 | 0.00 | 0.00 | 56 | 1012.0 |
| 20260504010238 | 59 | 257 | 0.9 | 3.5 | 0.00 | 0.00 | 0.00 | 56 | 1012.0 |
| 20260504005735 | 60 | 182 | 1.7 | 7.0 | 0.00 | 0.00 | 0.00 | 55 | 1011.7 |
| 20260504005233 | 60 | 243 | 3.5 | 9.6 | 0.00 | 0.00 | 0.00 | 55 | 1011.7 |
| 20260504004730 | 60 | 215 | 7.8 | 10.4 | 0.00 | 0.00 | 0.00 | 55 | 1011.8 |
| 20260504004227 | 60 | 217 | 4.3 | 9.6 | 0.00 | 0.00 | 0.00 | 56 | 1011.6 |
| 20260504003723 | 60 | 246 | 3.5 | 13.0 | 0.00 | 0.00 | 0.00 | 56 | 1011.8 |
| 20260504003221 | 60 | 220 | 4.3 | 9.6 | 0.00 | 0.00 | 0.00 | 54 | 1011.7 |
| 20260504002717 | 61 | 234 | 6.1 | 7.8 | 0.00 | 0.00 | 0.00 | 53 | 1012.2 |
| 20260504002214 | 61 | 223 | 5.2 | 6.1 | 0.00 | 0.00 | 0.00 | 51 | 1012.6 |
| 20260504001712 | 61 | 229 | 2.6 | 4.3 | 0.00 | 0.00 | 0.00 | 51 | 1012.8 |
| 20260504001209 | 61 | 235 | 2.6 | 8.7 | 0.00 | 0.00 | 0.00 | 51 | 1012.9 |
| 20260504000706 | 61 | 245 | 2.6 | 6.1 | 0.00 | 0.00 | 0.00 | 51 | 1012.8 |
| 20260504000204 | 61 | 196 | 3.5 | 7.8 | 0.00 | 0.00 | 0.00 | 49 | 1012.6 |
| 20260503235701 | 61 | 244 | 2.6 | 7.8 | 0.00 | 0.00 | 0.00 | 49 | 1012.7 |
| 20260503235157 | 62 | 219 | 1.7 | 4.3 | 0.00 | 0.00 | 0.00 | 50 | 1012.8 |
| 20260503234655 | 62 | 219 | 8.7 | 9.6 | 0.00 | 0.00 | 0.00 | 49 | 1012.7 |
| 20260503234154 | 61 | 240 | 2.6 | 5.2 | 0.00 | 0.00 | 0.00 | 49 | 1013.3 |
| 20260503233650 | 61 | 215 | 3.5 | 4.3 | 0.00 | 0.00 | 0.00 | 50 | 1013.2 |
| 20260503233146 | 62 | 228 | 1.7 | 2.6 | 0.00 | 0.00 | 0.00 | 50 | 1013.2 |
| 20260503232643 | 62 | 242 | 1.7 | 2.6 | 0.00 | 0.00 | 0.00 | 50 | 1013.2 |
| 20260503232140 | 62 | 243 | 2.6 | 7.0 | 0.00 | 0.00 | 0.00 | 49 | 1012.9 |
| 20260503231638 | 62 | 289 | 1.7 | 7.0 | 0.00 | 0.00 | 0.00 | 49 | 1012.8 |
| 20260503231134 | 62 | 253 | 1.7 | 2.6 | 0.00 | 0.00 | 0.00 | 49 | 1012.5 |
| 20260503230631 | 62 | 271 | 1.7 | 6.1 | 0.00 | 0.00 | 0.00 | 49 | 1012.7 |
| 20260503230128 | 62 | 195 | 3.5 | 6.1 | 0.00 | 0.00 | 0.00 | 48 | 1012.6 |
| 20260503225626 | 62 | 208 | 1.7 | 13.9 | 0.00 | 0.00 | 0.00 | 48 | 1012.7 |
| 20260503225125 | 62 | 230 | 3.5 | 8.7 | 0.00 | 0.00 | 0.00 | 49 | 1012.7 |
| 20260503224623 | 62 | 197 | 0.9 | 8.7 | 0.00 | 0.00 | 0.00 | 49 | 1012.9 |
| 20260503224121 | 62 | 198 | 6.1 | 9.6 | 0.00 | 0.00 | 0.00 | 48 | 1012.9 |
| 20260503223619 | 62 | 205 | 4.3 | 11.3 | 0.00 | 0.00 | 0.00 | 49 | 1013.0 |
| 20260503223114 | 62 | 296 | 1.7 | 4.3 | 0.00 | 0.00 | 0.00 | 49 | 1013.0 |
| 20260503222612 | 62 | 276 | 1.7 | 5.2 | 0.00 | 0.00 | 0.00 | 48 | 1013.1 |
| 20260503222110 | 62 | 254 | 5.2 | 8.7 | 0.00 | 0.00 | 0.00 | 49 | 1012.9 |
| 20260503221608 | 62 | 248 | 3.5 | 12.2 | 0.00 | 0.00 | 0.00 | 48 | 1013.0 |
| 20260503221105 | 62 | 73 | 1.7 | 12.2 | 0.00 | 0.00 | 0.00 | 48 | 1013.1 |
| 20260503220601 | 62 | 210 | 7.0 | 13.9 | 0.00 | 0.00 | 0.00 | 48 | 1012.8 |
| 20260503220058 | 62 | 227 | 5.2 | 11.3 | 0.00 | 0.00 | 0.00 | 48 | 1012.9 |
| 20260503215555 | 62 | 236 | 3.5 | 12.2 | 0.00 | 0.00 | 0.00 | 47 | 1013.2 |
| 20260503215052 | 62 | 219 | 7.8 | 15.6 | 0.00 | 0.00 | 0.00 | 47 | 1013.2 |
| 20260503214550 | 62 | 240 | 2.6 | 11.3 | 0.00 | 0.00 | 0.00 | 48 | 1013.2 |
| 20260503214046 | 62 | 212 | 11.3 | 13.0 | 0.00 | 0.00 | 0.00 | 47 | 1012.9 |
| 20260503213545 | 61 | 284 | 4.3 | 14.8 | 0.00 | 0.00 | 0.00 | 48 | 1013.2 |
| 20260503213041 | 62 | 247 | 4.3 | 19.1 | 0.00 | 0.00 | 0.00 | 48 | 1013.5 |
| 20260503212539 | 61 | 244 | 7.0 | 22.6 | 0.00 | 0.00 | 0.00 | 48 | 1013.5 |
| 20260503212036 | 62 | 230 | 7.8 | 10.4 | 0.00 | 0.00 | 0.00 | 48 | 1013.8 |
| 20260503211533 | 62 | 245 | 1.7 | 7.8 | 0.00 | 0.00 | 0.00 | 48 | 1013.8 |
| 20260503211028 | 62 | 229 | 5.2 | 7.0 | 0.00 | 0.00 | 0.00 | 47 | 1013.6 |
| 20260503210526 | 61 | 247 | 4.3 | 10.4 | 0.00 | 0.00 | 0.00 | 47 | 1013.8 |
| 20260503210021 | 61 | 237 | 4.3 | 11.3 | 0.00 | 0.00 | 0.00 | 48 | 1014.3 |
| 20260503205518 | 62 | 259 | 2.6 | 5.2 | 0.00 | 0.00 | 0.00 | 48 | 1014.1 |
| 20260503205014 | 61 | 236 | 3.5 | 6.1 | 0.00 | 0.00 | 0.00 | 47 | 1014.5 |
| 20260503204512 | 61 | 250 | 3.5 | 8.7 | 0.00 | 0.00 | 0.00 | 47 | 1014.9 |
| 20260503204008 | 61 | 290 | 7.0 | 15.6 | 0.00 | 0.00 | 0.00 | 46 | 1015.2 |
| 20260503203506 | 61 | 244 | 3.5 | 6.1 | 0.00 | 0.00 | 0.00 | 48 | 1015.4 |
| 20260503203003 | 61 | 186 | 4.3 | 7.8 | 0.00 | 0.00 | 0.00 | 46 | 1015.4 |
| 20260503202500 | 61 | 277 | 4.3 | 10.4 | 0.00 | 0.00 | 0.00 | 45 | 1015.8 |
| 20260503201959 | 62 | 281 | 7.0 | 13.0 | 0.00 | 0.00 | 0.00 | 44 | 1015.7 |
| 20260503201456 | 62 | 246 | 4.3 | 7.8 | 0.00 | 0.00 | 0.00 | 45 | 1015.5 |
| 20260503200953 | 62 | 236 | 13.9 | 16.5 | 0.00 | 0.00 | 0.00 | 45 | 1015.5 |
| 20260503200449 | 62 | 269 | 3.5 | 19.1 | 0.00 | 0.00 | 0.00 | 44 | 1015.4 |
| 20260503195946 | 62 | 272 | 4.3 | 15.6 | 0.00 | 0.00 | 0.00 | 45 | 1015.4 |
| 20260503195444 | 63 | 215 | 7.0 | 13.9 | 0.00 | 0.00 | 0.00 | 45 | 1015.4 |
| 20260503194940 | 62 | 240 | 5.2 | 13.0 | 0.00 | 0.00 | 0.00 | 46 | 1015.6 |
| 20260503194437 | 62 | 236 | 3.5 | 7.0 | 0.00 | 0.00 | 0.00 | 46 | 1015.6 |
| 20260503193932 | 62 | 253 | 2.6 | 13.9 | 0.00 | 0.00 | 0.00 | 45 | 1015.5 |
| 20260503193428 | 62 | 242 | 1.7 | 11.3 | 0.00 | 0.00 | 0.00 | 44 | 1015.8 |
| 20260503192923 | 61 | 241 | 7.0 | 18.2 | 0.00 | 0.00 | 0.00 | 46 | 1015.8 |
| 20260503192421 | 62 | 237 | 6.1 | 11.3 | 0.00 | 0.00 | 0.00 | 45 | 1015.8 |
| 20260503191916 | 62 | 265 | 2.6 | 9.6 | 0.00 | 0.00 | 0.00 | 45 | 1016.1 |
| 20260503191414 | 62 | 77 | 0.0 | 9.6 | 0.00 | 0.00 | 0.00 | 46 | 1015.5 |
| 20260503190910 | 61 | 251 | 3.5 | 13.9 | 0.00 | 0.00 | 0.00 | 46 | 1016.2 |
| 20260503190408 | 61 | 239 | 5.2 | 11.3 | 0.00 | 0.00 | 0.00 | 47 | 1016.3 |
| 20260503185904 | 61 | 244 | 7.0 | 11.3 | 0.00 | 0.00 | 0.00 | 46 | 1016.2 |
| 20260503185401 | 61 | 234 | 10.4 | 11.3 | 0.00 | 0.00 | 0.00 | 45 | 1016.3 |
| 20260503184900 | 61 | 239 | 4.3 | 13.0 | 0.00 | 0.00 | 0.00 | 46 | 1016.5 |
| 20260503184356 | 61 | 221 | 7.0 | 12.2 | 0.00 | 0.00 | 0.00 | 46 | 1016.4 |
| 20260503183853 | 61 | 214 | 3.5 | 12.2 | 0.00 | 0.00 | 0.00 | 46 | 1016.3 |
| 20260503183350 | 61 | 253 | 4.3 | 13.9 | 0.00 | 0.00 | 0.00 | 48 | 1016.7 |
| 20260503182847 | 60 | 206 | 3.5 | 13.9 | 0.00 | 0.00 | 0.00 | 47 | 1016.9 |
| 20260503182346 | 60 | 213 | 9.6 | 18.2 | 0.00 | 0.00 | 0.00 | 46 | 1017.1 |
| 20260503181842 | 60 | 230 | 9.6 | 15.6 | 0.00 | 0.00 | 0.00 | 46 | 1017.3 |
| 20260503181340 | 62 | 197 | 6.1 | 9.6 | 0.00 | 0.00 | 0.00 | 45 | 1017.3 |
| 20260503180836 | 60 | 292 | 7.0 | 14.8 | 0.00 | 0.00 | 0.00 | 45 | 1017.2 |
| 20260503180334 | 61 | 221 | 6.1 | 11.3 | 0.00 | 0.00 | 0.00 | 45 | 1017.1 |
| 20260503175830 | 60 | 288 | 2.6 | 14.8 | 0.00 | 0.00 | 0.00 | 46 | 1017.9 |
| 20260503175328 | 60 | 228 | 5.2 | 10.4 | 0.00 | 0.00 | 0.00 | 45 | 1017.7 |
| 20260503174823 | 61 | 250 | 3.5 | 10.4 | 0.00 | 0.00 | 0.00 | 45 | 1017.7 |
| 20260503174322 | 59 | 225 | 1.7 | 15.6 | 0.00 | 0.00 | 0.00 | 45 | 1017.9 |
| 20260503173817 | 60 | 263 | 4.3 | 13.0 | 0.00 | 0.00 | 0.00 | 46 | 1018.2 |
| 20260503173314 | 61 | 205 | 5.2 | 9.6 | 0.00 | 0.00 | 0.00 | 45 | 1018.3 |
| 20260503172810 | 60 | 288 | 7.0 | 14.8 | 0.00 | 0.00 | 0.00 | 45 | 1018.3 |
| 20260503172308 | 59 | 242 | 10.4 | 13.0 | 0.00 | 0.00 | 0.00 | 44 | 1018.5 |
| 20260503171804 | 60 | 223 | 4.3 | 14.8 | 0.00 | 0.00 | 0.00 | 45 | 1018.5 |
| 20260503171301 | 60 | 279 | 4.3 | 13.0 | 0.00 | 0.00 | 0.00 | 44 | 1018.3 |
| 20260503170758 | 59 | 229 | 3.5 | 20.9 | 0.00 | 0.00 | 0.00 | 46 | 1018.5 |
| 20260503170255 | 60 | 238 | 3.5 | 12.2 | 0.00 | 0.00 | 0.00 | 47 | 1018.3 |
| 20260503160217 | 57 | 232 | 4.3 | 11.3 | 0.00 | 0.00 | 0.00 | 46 | 1019.0 |
| 20260503150647 | 55 | 157 | 0.9 | 12.2 | 0.00 | 0.00 | 0.00 | 48 | 1019.8 |
| 20260503150143 | 57 | 227 | 2.6 | 10.4 | 0.00 | 0.00 | 0.00 | 47 | 1019.6 |
| 20260503140108 | 52 | 229 | 7.8 | 10.4 | 0.00 | 0.00 | 0.00 | 50 | 1020.1 |
| 20260503131037 | 49 | 210 | 4.3 | 7.8 | 0.00 | 0.00 | 0.00 | 55 | 1020.1 |
| 20260503130534 | 49 | 246 | 2.6 | 7.8 | 0.00 | 0.00 | 0.00 | 57 | 1020.1 |
| 20260503110425 | 33 | 72 | 1.7 | 2.6 | 0.00 | 0.00 | 0.00 | 97 | 1019.6 |
| 20260503090315 | 34 | 67 | 0.9 | 2.6 | 0.00 | 0.00 | 0.00 | 95 | 1019.1 |
| 20260503081243 | 34 | 124 | 0.0 | 1.7 | 0.00 | 0.00 | 0.00 | 95 | 1019.3 |